Location: Ferchesar
(52.6477°N, 12.4298°E)
Time: 18:16:16
(UTC+01:00)

Transit 4A - Pass Details

Date: 08 December 2021
Orbit: 864 x 980 km, 66.8° (Epoch: 16 January)

Event Time Altitude Azimuth Distance (km) Brightness Sun altitude
Rises 18:12:43 0° 194° (SSW) 3,460 11.2 -19.5°
Reaches altitude 10° 18:15:15 10° 188° (S) 2,538 10.4 -19.8°
Maximum altitude 18:20:48 45° 117° (ESE) 1,208 8.1 -20.7°
Enters shadow 18:22:03 40° 85° (E) 1,316 8.2 -20.8°
